Location: Beuerbach
(48.1459°N, 10.9174°E)
Time: 02:08:41
(UTC+00:00)

Cosmos 1300 Rocket - Pass Details

Date: 23 May 2024
Orbit: 597 x 624 km, 82.5° (Epoch: 13 June)

Event Time Altitude Azimuth Distance (km) Brightness Sun altitude
Rises 01:10:51 0° 350° (N) 2,875 7.8 -16.3°
Reaches altitude 10° 01:13:05 10° 351° (N) 1,962 6.9 -16.2°
Maximum altitude 01:17:26 85° 80° (E) 610 3.5 -15.8°
Enters shadow 01:20:27 19° 169° (S) 1,432 5.0 -15.5°
